[Iaude] MPEC T136: 2019 VO1 [a=1.22,e=0.34,i=12.6,H=22.04]
    mpec at marsden.cfa.harvard.edu 
    mpec at marsden.cfa.harvard.edu
       
    Tue Oct 10 10:18:33 EDT 2023
    
    
  
M.P.E.C. 2023-T136                             Issued 2023 October 10, 14:16 UT
     The Minor Planet Electronic Circulars contain information on unusual
         minor planets, routine data on comets and natural satellites,
         and occasional editorial announcements.  They are published
    on behalf of Division F of the International Astronomical Union by the
          Minor Planet Center, Smithsonian Astrophysical Observatory,
                          Cambridge, MA 02138, U.S.A.
			  
             Prepared using the Tamkin Foundation Computer Network
                              MPC at CFA.HARVARD.EDU
            URL https://www.minorplanetcenter.net/    ISSN 1523-6714
                                    2019 VO1                                    
                           Revision to MPEC 2019-V59                            
Additional Observations:
     K19V01O  C2016 06 05.57866422 04 40.384+06 53 41.99         23.52GVET136F51
     K19V01O  C2016 06 05.59135022 04 40.637+06 53 57.98         23.07GVET136F51
     K19V01O  C2016 06 05.60407522 04 40.907+06 54 14.65         24.53GVET136F51
     K19V01O  C2016 06 07.56595922 05 23.544+07 35 18.13         22.64GVET136F51
     K19V01O  C2016 06 07.58449722 05 23.823+07 35 41.88         21.94GVET136F51
     K19V01O  C2016 06 07.59390722 05 23.956+07 35 53.26         23.48GVET136F51
     K19V01O  C2016 06 30.48487421 59 52.246+14 37 42.82         22.65GVET136F51
     K19V01O  C2016 06 30.49773921 59 51.564+14 37 54.92         22.69GVET136F51
     K19V01O  C2016 06 30.51068021 59 50.835+14 38 06.72         21.30GVET136F51
     K19V01O 0C2023 09 19.53710902 23 42.490+35 16 55.49         22.92GVET136T12
     K19V01O 0C2023 09 19.54800502 23 42.344+35 16 58.50         23.11GVET136T12
     K19V01O 0C2023 09 20.60175402 23 32.069+35 21 33.81         23.18GVET136T12
     K19V01O 0C2023 09 20.61264602 23 31.883+35 21 36.24         23.07GVET136T12
Observer details:
F51 Pan-STARRS 1, Haleakala.  Observers J. Bulger, K. Chambers, T. Lowe, P.
    Minguez, A. Schultz, I. Smith.  Measurers S. Chastel, J. Fairlamb, M.
    Huber, Y. Ramanjooloo, R. Wainscoat, R. Weryk.  1.8-m Ritchey-Chretien +
    CCD.
T12 University of Hawaii 88-inch telescope, Maunakea.  Observer D. Hung.
    Measurer D. J. Tholen.  2.24-m f/10.1 reflector + 2112 x 2112 pixels
    STA1600 10k CCD.
First and last observations above in comparison with prediction:
Residuals in seconds of arc, reference and Delta-T
160605 F51  1.0-  0.1-    230920 T12  2.0-  0.2-    E2023-Q03   +0.00 days
Orbital elements:
2019 VO1                                                 Earth MOID = 0.0081 AU
Epoch 2023 Sept. 13.0 TT = JDT 2460200.5                Veres                   
M 233.29486              (2000.0)            P               Q                  
n   0.73208770     Peri.  283.95888     -0.93074221     -0.31589430             
a   1.2192534      Node   237.92125     +0.35795337     -0.89003081             
e   0.3375210      Incl.   12.55589     -0.07475503     -0.32871865             
P   1.35           H   22.04          G   0.15           U   1                  
Residuals in seconds of arc
160605 F51  0.3-  0.1+    191117 I52  0.4+  0.5+    191129 T08  0.0   0.5+
160605 F51  0.3-  0.0     191117 I52  0.7+  0.2-    191129 T08  0.3+  0.9+
160605 F51  0.0   0.5+    191117 F65  0.2-  0.3-    191129 T08  0.5-  0.1+
160607 F51  0.2-  0.3-    191117 F65  0.1-  0.1-    191204 734  2.3-  0.2-
160607 F51  0.1-  0.3+    191117 F65  0.1+  0.2-    191204 734  0.8-  0.2-
160607 F51  0.1-  0.1-    191117 691  0.6-  0.5-    191204 734  0.7+  0.1+
160630 F51  0.2-  0.4+    191117 F51  0.1+  0.1-    191204 734  1.2+  0.4+
160630 F51  0.4+  0.6+    191117 691  0.2-  0.1+    191204 K87  0.4+  0.3+
160630 F51  0.4+  0.5+    191117 691  0.3+  0.2-    191204 K87  0.3+  0.3+
191025 F52  0.2+  0.3-    191117 F51  0.1-  0.1-    191204 K87  0.3+  0.2+
191025 F52  0.0   0.3-    191117 F51  0.0   0.1-    191204 K87  0.3+  0.2+
191025 F52  0.0   0.2-    191117 F51  0.0   0.1-    191210 734  0.6+  0.1-
191102 F51  0.0   0.2-    191119 G96  0.1-  0.0     191210 734  0.1+  0.4+
191102 F51  0.0   0.1-    191119 G96  0.0   0.0     191210 734  0.4+  0.0
191102 F51  0.1+  0.1-    191119 G96  0.0   0.0     191210 734  0.1-  0.4-
191104 G96  0.2-  0.3-    191119 G96  0.1-  0.1+    191216 807  0.0   0.1-
191104 G96  0.2-  0.2-    191119 691  0.1-  0.1-    191216 807  0.2+  0.2-
191104 G96  0.0   0.0     191119 691  0.5+  0.1-    191216 807  0.2+  0.0
191104 G96  0.0   0.3-    191124 G96  0.0   0.0     191220 691  0.1+  0.2-
191104 I52  0.3-  0.0     191124 G96  0.1+  0.2-    191220 691  0.3+  0.3+
191104 I52  0.1+  0.1+    191124 G96  0.0   0.1+    191223 807  0.1-  0.0
191104 I52  0.4-  0.1+    191124 G96  0.1-  0.2+    191223 807  0.0   0.1-
191116 H21  0.1+  0.3+    191124 691  0.1-  0.2+    191223 807  0.0   0.1+
191116 H21  0.1-  0.4+    191124 691  0.4-  0.3+    200102 807  0.0   0.2+
191116 H21  0.2-  0.4+    191128 T05  0.2+  0.4-    200102 807  0.2-  0.0
191116 H21  0.1-  0.1+    191128 T05  0.3-  0.4+    200102 807  0.1-  0.1-
191116 H21  0.0   0.1+    191128 T05  0.3+  0.1-    230919 T12  0.0   0.1-
191116 H21  0.1+  0.2+    191128 T05  0.4-  0.5+    230919 T12  0.1+  0.0
191116 H21  0.0   0.2+    191128 T05  0.2+  1.5+    230920 T12  0.0   0.0
191117 I52  0.0   0.2+    191128 T05  0.0   0.4+    230920 T12  0.0   0.1-
191117 I52  0.3-  0.1-    191129 T08  0.1-  0.1+
Ephemeris:
2019 VO1                 a,e,i = 1.22, 0.34, 13                  q = 0.8077
Date    TT    R. A. (2000) Decl.     Delta      r    Elong.  Phase     V
2023 09 10    02 22 25.0 +34 18 39   0.7643  1.5393   120.1    34.5    23.8
...
2023 09 25    02 22 06.8 +35 35 47   0.6218  1.4959   132.6    29.6    23.2
...
2023 10 03    02 16 12.0 +35 36 36   0.5532  1.4693   140.2    25.8    22.8
...
2023 10 09    02 08 42.4 +35 08 49   0.5063  1.4479   146.3    22.5    22.4
2023 10 10    02 07 11.7 +35 01 14   0.4989  1.4442   147.3    21.9    22.4
2023 10 11    02 05 36.7 +34 52 43   0.4917  1.4405   148.4    21.3    22.3
...
2023 10 17    01 54 39.6 +33 40 01   0.4513  1.4173   154.4    17.7    22.0
...
2023 10 25    01 36 57.9 +30 57 28   0.4067  1.3845   160.4    14.0    21.6
...
2023 11 09    01 01 38.5 +22 24 44   0.3554  1.3172   152.9    20.0    21.4
A. U. Tomatic                (C) Copyright 2023 MPC           M.P.E.C. 2023-T136
    
    
More information about the Iaude
mailing list